TimeEDT,TemperatureF,Dew PointF,Humidity,Sea Level PressureIn,VisibilityMPH,Wind Direction,Wind SpeedMPH,Gust SpeedMPH,PrecipitationIn,Events,Conditions,WindDirDegrees,DateUTC
12:15 AM,55.4,51.8,88,30.21,10.0,SSW,3.5,-,N/A,,Clear,210,2011-10-10 04:15:00
12:35 AM,53.6,51.8,94,30.21,10.0,WSW,4.6,-,N/A,,Clear,250,2011-10-10 04:35:00
12:55 AM,53.6,50.0,88,30.21,10.0,Calm,Calm,-,N/A,,Clear,0,2011-10-10 04:55:00
1:15 AM,53.6,51.8,94,30.21,10.0,Calm,Calm,-,N/A,,Clear,0,2011-10-10 05:15:00
1:35 AM,55.4,51.8,88,30.21,10.0,Calm,Calm,-,N/A,,Clear,0,2011-10-10 05:35:00
1:55 AM,55.4,51.8,88,30.20,10.0,Calm,Calm,-,N/A,,Clear,0,2011-10-10 05:55:00
2:15 AM,55.4,51.8,88,30.20,10.0,Calm,Calm,-,N/A,,Clear,0,2011-10-10 06:15:00
2:35 AM,53.6,50.0,88,30.20,10.0,Calm,Calm,-,N/A,,Clear,0,2011-10-10 06:35:00
2:55 AM,53.6,51.8,94,30.19,10.0,Calm,Calm,-,N/A,,Clear,0,2011-10-10 06:55:00
3:15 AM,53.6,50.0,88,30.18,10.0,Calm,Calm,-,N/A,,Clear,0,2011-10-10 07:15:00
3:35 AM,51.8,48.2,88,30.18,10.0,Calm,Calm,-,N/A,,Clear,0,2011-10-10 07:35:00
3:55 AM,51.8,48.2,88,30.18,5.0,Calm,Calm,-,N/A,,Clear,0,2011-10-10 07:55:00
4:35 AM,53.6,50.0,88,30.18,8.0,Calm,Calm,-,N/A,,Clear,0,2011-10-10 08:35:00
4:55 AM,51.8,48.2,88,30.18,10.0,Calm,Calm,-,N/A,,Clear,0,2011-10-10 08:55:00
5:15 AM,50.0,48.2,94,30.18,2.5,Calm,Calm,-,N/A,,Clear,0,2011-10-10 09:15:00
5:35 AM,51.8,48.2,88,30.18,10.0,WSW,4.6,-,N/A,,Clear,250,2011-10-10 09:35:00
5:55 AM,51.8,48.2,88,30.18,7.0,Calm,Calm,-,N/A,,Clear,0,2011-10-10 09:55:00
6:15 AM,53.6,50.0,88,30.18,10.0,WSW,6.9,-,N/A,,Clear,250,2011-10-10 10:15:00
6:35 AM,48.2,46.4,93,30.18,7.0,ENE,6.9,-,N/A,,Clear,60,2011-10-10 10:35:00
6:55 AM,51.8,48.2,88,30.18,9.0,Calm,Calm,-,N/A,,Clear,0,2011-10-10 10:55:00
7:15 AM,51.8,48.2,88,30.18,9.0,Calm,Calm,-,N/A,,Clear,0,2011-10-10 11:15:00
7:35 AM,53.6,50.0,88,30.18,9.0,Calm,Calm,-,N/A,,Clear,0,2011-10-10 11:35:00
7:55 AM,55.4,51.8,88,30.18,10.0,Calm,Calm,-,N/A,,Clear,0,2011-10-10 11:55:00
8:15 AM,57.2,53.6,88,30.18,10.0,WSW,6.9,-,N/A,,Clear,240,2011-10-10 12:15:00
8:35 AM,62.6,53.6,72,30.19,10.0,Calm,Calm,-,N/A,,Clear,0,2011-10-10 12:35:00
9:15 AM,66.2,53.6,64,30.19,10.0,SW,8.1,-,N/A,,Clear,220,2011-10-10 13:15:00
9:35 AM,68.0,53.6,60,30.19,10.0,WSW,4.6,-,N/A,,Clear,240,2011-10-10 13:35:00
9:55 AM,69.8,53.6,56,30.19,10.0,WSW,3.5,-,N/A,,Clear,250,2011-10-10 13:55:00
10:15 AM,69.8,51.8,53,30.18,10.0,West,8.1,-,N/A,,Clear,270,2011-10-10 14:15:00
10:35 AM,71.6,53.6,53,30.17,10.0,West,6.9,-,N/A,,Clear,280,2011-10-10 14:35:00
10:55 AM,71.6,51.8,50,30.18,10.0,West,10.4,16.1,N/A,,Clear,270,2011-10-10 14:55:00
11:15 AM,73.4,51.8,47,30.17,10.0,West,11.5,16.1,N/A,,Clear,260,2011-10-10 15:15:00
11:35 AM,73.4,53.6,50,30.17,10.0,WNW,10.4,-,N/A,,Clear,300,2011-10-10 15:35:00
11:55 AM,73.4,53.6,50,30.16,10.0,West,10.4,17.3,N/A,,Clear,260,2011-10-10 15:55:00
12:15 PM,75.2,53.6,47,30.16,10.0,NW,11.5,-,N/A,,Clear,310,2011-10-10 16:15:00
12:35 PM,75.2,53.6,47,30.14,10.0,West,12.7,17.3,N/A,,Clear,270,2011-10-10 16:35:00
12:55 PM,75.2,53.6,47,30.14,10.0,WNW,11.5,17.3,N/A,,Clear,290,2011-10-10 16:55:00
1:15 PM,77.0,53.6,44,30.12,10.0,West,10.4,16.1,N/A,,Clear,280,2011-10-10 17:15:00
1:35 PM,77.0,53.6,44,30.12,10.0,West,13.8,18.4,N/A,,Clear,270,2011-10-10 17:35:00
1:55 PM,77.0,53.6,44,30.11,10.0,WNW,11.5,20.7,N/A,,Clear,290,2011-10-10 17:55:00
2:15 PM,77.0,53.6,44,30.11,10.0,West,11.5,21.9,N/A,,Clear,280,2011-10-10 18:15:00
2:35 PM,78.8,53.6,42,30.10,10.0,West,12.7,17.3,N/A,,Clear,270,2011-10-10 18:35:00
2:55 PM,78.8,53.6,42,30.10,10.0,NW,12.7,18.4,N/A,,Clear,310,2011-10-10 18:55:00
3:15 PM,78.8,53.6,42,30.10,10.0,WNW,12.7,19.6,N/A,,Clear,290,2011-10-10 19:15:00
3:35 PM,77.0,51.8,41,30.10,10.0,West,12.7,23.0,N/A,,Clear,280,2011-10-10 19:35:00
3:55 PM,78.8,51.8,39,30.10,10.0,WNW,8.1,18.4,N/A,,Clear,290,2011-10-10 19:55:00
4:15 PM,77.0,51.8,41,30.10,10.0,West,10.4,19.6,N/A,,Clear,280,2011-10-10 20:15:00
4:55 PM,75.2,51.8,44,30.10,10.0,WNW,10.4,-,N/A,,Clear,290,2011-10-10 20:55:00
5:35 PM,73.4,51.8,47,30.10,10.0,WNW,6.9,-,N/A,,Clear,290,2011-10-10 21:35:00
5:55 PM,73.4,51.8,47,30.10,10.0,North,3.5,-,N/A,,Clear,360,2011-10-10 21:55:00
6:15 PM,71.6,51.8,50,30.10,10.0,WNW,5.8,-,N/A,,Clear,300,2011-10-10 22:15:00
6:35 PM,71.6,48.2,43,30.09,10.0,West,6.9,-,N/A,,Clear,280,2011-10-10 22:35:00
6:55 PM,69.8,48.2,46,30.11,10.0,South,4.6,-,N/A,,Clear,180,2011-10-10 22:55:00
7:15 PM,66.2,50.0,56,30.11,10.0,West,4.6,-,N/A,,Clear,280,2011-10-10 23:15:00
7:35 PM,66.2,48.2,52,30.12,10.0,WNW,5.8,-,N/A,,Clear,290,2011-10-10 23:35:00
7:55 PM,66.2,46.4,49,30.12,10.0,Calm,Calm,-,N/A,,Clear,0,2011-10-10 23:55:00
8:15 PM,64.4,46.4,52,30.13,10.0,West,6.9,-,N/A,,Clear,260,2011-10-11 00:15:00
8:35 PM,66.2,46.4,49,30.14,10.0,WNW,9.2,-,N/A,,Clear,290,2011-10-11 00:35:00
8:55 PM,64.4,46.4,52,30.15,10.0,WSW,6.9,-,N/A,,Clear,250,2011-10-11 00:55:00
9:15 PM,64.4,46.4,52,30.15,10.0,WNW,5.8,-,N/A,,Clear,290,2011-10-11 01:15:00
9:35 PM,64.4,46.4,52,30.15,10.0,West,5.8,-,N/A,,Clear,280,2011-10-11 01:35:00
9:55 PM,62.6,46.4,55,30.15,10.0,Calm,Calm,-,N/A,,Clear,0,2011-10-11 01:55:00
10:15 PM,64.4,46.4,52,30.14,10.0,West,6.9,16.1,N/A,,Clear,280,2011-10-11 02:15:00
10:35 PM,64.4,44.6,49,30.14,10.0,Calm,Calm,-,N/A,,Clear,0,2011-10-11 02:35:00
10:55 PM,60.8,46.4,59,30.14,10.0,West,3.5,-,N/A,,Clear,270,2011-10-11 02:55:00
11:35 PM,55.4,46.4,72,30.14,10.0,Calm,Calm,-,N/A,,Clear,0,2011-10-11 03:35:00
11:55 PM,53.6,46.4,77,30.15,10.0,Calm,Calm,-,N/A,,Clear,0,2011-10-11 03:55:00